Regional Weather Roundup
Issued by NWS State College, PA

Home | Current Version | Previous Version | Graphics & Text | Print | Product List | Glossary On
Versions: 1 2 3 4 5 6 7 8 9 10 11 12 13 14 15 16 17 18 19 20 21 22 23 24 25 26 27 28 29 30 31 32 33 34 35 36 37 38 39 40 41 42 43 44 45 46 47 48 49 50
000
ASUS41 KCTP 020103
RWRCTP

REGIONAL WEATHER ROUNDUP
NATIONAL WEATHER SERVICE STATE COLLEGE PA
900 PM EDT WED OCT 01 2014

Note: "fair" indicates few or no clouds below 12,000 feet with no
significant weather and/or obstructions to visibility.

* = STATION THAT DOES NOT REPORT PRECIPITATION /E.G. RAIN...SNOW...ETC/
    THUNDER OR FOG.

PAZ002>004-007>009-013>016-020>023-029>032-020200-
WESTERN PENNSYLVANIA

CITY           SKY/WX    TMP DP  RH WIND       PRES   REMARKS
ERIE           CLEAR     63  58  83 E7        30.04R
MEADVILLE      CLEAR     61  57  87 CALM      30.05R
FRANKLIN*      CLEAR     57  52  82 CALM      30.06R
NEW CASTLE       N/A     55  55 100 CALM      30.06R FOG
BEAVER COUNTY  CLEAR     57  55  94 S3        30.05R
BUTLER*        CLEAR     55  52  88 CALM      30.06R
PITTSBURGH INT PTCLDY    58  55  90 CALM      30.04R
PITTSBURGH     CLEAR     62  54  74 CALM      30.04R HAZE
INDIANA*       CLOUDY    63  57  82 E5        30.09R
LATROBE        CLEAR     61  61 100 CALM      30.06R
WASHINGTON CO* MOCLDY    52  48  87 CALM      30.06R VSB 1/4
$$

PAZ004>006-010>012-017>019-024>028-033>037-041-042-045-046-049>053-020200-
CENTRAL PENNSYLVANIA

CITY           SKY/WX    TMP DP  RH WIND       PRES   REMARKS
BRADFORD       CLEAR     55  52  89 CALM      30.08S
DUBOIS         CLEAR     56  54  93 SE5       30.06R
CLEARFIELD     CLEAR     56  55  97 N6        30.08R
JOHNSTOWN      CLEAR     57  54  89 SE5       30.08R
ALTOONA        CLEAR     56  55  97 CALM      30.08R
STATE COLLEGE  NOT AVBL
WILLIAMSPORT   CLOUDY    63  61  93 S3        30.05R
SELINSGROVE    CLOUDY    63  59  87 CALM      30.07R
FT INDIANTOWN  MOCLDY    63  63 100 NE3       30.08R
CAPITAL CITY   CLEAR     61  58  90 CALM      30.06R
HARRISBURG     PTCLDY    62  59  90 CALM      30.06R
YORK           CLEAR     54  53  97 CALM      30.06R FOG
$$

PAZ038>040-043-044-047-048-054-055-060>062-067>071-020200-
EASTERN PENNSYLVANIA

CITY           SKY/WX    TMP DP  RH WIND       PRES   REMARKS
SCRANTON       CLOUDY    63  54  72 E3        30.09R
MOUNT POCONO   CLOUDY    58  54  86 E5        30.11R
ALLENTOWN      CLOUDY    62  56  80 N3        30.08R
QUAKERTOWN*    MOCLDY    63  57  82 CALM      30.09R
READING        CLOUDY    66  56  70 E7        30.06R
LANCASTER      LGT RAIN  63  60  90 N9        30.07R FOG
COATESVILLE    MOCLDY    64  57  77 CALM      30.07S
POTTSTOWN      PTCLDY    61  56  83 CALM      30.08R
BLUE BELL      CLOUDY    64  59  82 NE3       30.06S
DOYLESTOWN     CLOUDY    63  57  81 CALM      30.07R
WILLOW GROVE   NOT AVBL
NORTH PHILA    CLOUDY    67  56  67 NE6       30.08R
PHILADELPHIA   MOCLDY    66  57  72 NE8       30.06R
$$



USA.gov is the U.S. government's official web portal to all federal, state and local government web resources and services.